User: anonymous   Login
Location: Unspecified
(0.0000°N, 0.0000°E)
Time: 17:02:26
(UTC+00:00)
Language:

NOSS 2-2 (E) - Orbit

View from above orbital plane
View from above orbital plane
View from above satellite
View from above satellite

Ground track
Ground track

The orbit data is extracted from the following two-line orbital elements,

1 21809U 91076E   18216.12647515 0.00000050  00000-0  13473-4 0    02
2 21809  63.3416 110.9384 0782190  27.0199 332.9801 13.41422912    01
Epoch (UTC): 04 August 2018 03:02:07
Eccentricity: 0.0782190
inclination: 63.3416°
perigee height: 519 km
apogee height: 1689 km
right ascension of ascending node: 110.9384°
argument of perigee: 27.0199°
revolutions per day: 13.41422912
mean anomaly at epoch: 332.9801°
orbit number at epoch: 0

The dashed part of the orbit path shows where the satellite is in the earth's shadow,  

DLR